Time,TemperatureF,DewpointF,PressureIn,WindDirection,WindDirectionDegrees,WindSpeedMPH,WindSpeedGustMPH,Humidity,HourlyPrecipIn,Conditions,Clouds,dailyrainin,SoftwareType,DateUTC
2013-02-25 00:02:00,18.1,6.6,30.03,NW,321,4.0,10.0,60,0.00,,,0.00,meteohub,2013-02-25 07:02:00,
2013-02-25 00:32:00,16.3,6.6,30.04,WNW,298,9.0,13.0,65,0.00,,,0.00,meteohub,2013-02-25 07:32:00,
2013-02-25 01:02:00,15.1,6.1,30.04,NW,306,7.0,15.0,67,0.00,,,0.00,meteohub,2013-02-25 08:02:00,
2013-02-25 01:32:00,14.0,6.1,30.06,NNW,330,8.0,10.0,70,0.00,,,0.00,meteohub,2013-02-25 08:32:00,
2013-02-25 02:02:00,13.6,6.1,30.06,North,355,4.0,11.0,71,0.00,,,0.00,meteohub,2013-02-25 09:02:00,
2013-02-25 02:32:00,12.6,5.5,30.07,NNW,337,6.0,8.0,73,0.00,,,0.00,meteohub,2013-02-25 09:32:00,
2013-02-25 03:02:00,11.1,5.0,30.07,NNW,346,3.0,7.0,76,0.00,,,0.00,meteohub,2013-02-25 10:02:00,
2013-02-25 03:32:00,10.0,4.3,30.08,NNW,332,3.0,6.0,77,0.00,,,0.00,meteohub,2013-02-25 10:32:00,
2013-02-25 04:02:00,9.1,3.7,30.08,NNW,333,3.0,5.0,78,0.00,,,0.00,meteohub,2013-02-25 11:02:00,
2013-02-25 04:32:00,7.2,1.8,30.08,NNW,333,2.0,5.0,78,0.00,,,0.00,meteohub,2013-02-25 11:32:00,
2013-02-25 05:02:00,8.2,3.0,30.09,NW,325,3.0,7.0,79,0.00,,,0.00,meteohub,2013-02-25 12:02:00,
2013-02-25 05:32:00,7.9,2.7,30.09,NW,325,0.0,4.0,79,0.00,,,0.00,meteohub,2013-02-25 12:32:00,
2013-02-25 06:02:00,8.2,2.5,30.09,NW,325,1.0,0.0,77,0.00,,,0.00,meteohub,2013-02-25 13:02:00,
2013-02-25 06:32:00,10.0,3.9,30.10,NNW,338,5.0,8.0,76,0.00,,,0.00,meteohub,2013-02-25 13:32:00,
2013-02-25 07:02:00,7.0,1.2,30.12,North,349,5.0,5.0,77,0.00,,,0.00,meteohub,2013-02-25 14:02:00,
2013-02-25 07:32:00,13.6,7.2,30.13,North,355,5.0,8.0,75,0.00,,,0.00,meteohub,2013-02-25 14:32:00,
2013-02-25 08:02:00,18.1,7.0,30.14,NNW,333,7.0,13.0,61,0.00,,,0.00,meteohub,2013-02-25 15:02:00,
2013-02-25 08:32:00,20.8,8.4,30.13,NNE,12,7.0,13.0,58,0.00,,,0.00,meteohub,2013-02-25 15:32:00,
2013-02-25 09:02:00,22.5,8.8,30.12,NE,51,5.0,12.0,55,0.00,,,0.00,meteohub,2013-02-25 16:02:00,
2013-02-25 09:32:00,25.5,7.7,30.13,North,0,10.0,11.0,46,0.00,,,0.00,meteohub,2013-02-25 16:32:00,
2013-02-25 10:02:00,27.7,8.1,30.12,NNE,19,9.0,10.0,43,0.00,,,0.00,meteohub,2013-02-25 17:02:00,
2013-02-25 10:32:00,29.7,7.2,30.11,NW,306,4.0,14.0,38,0.00,,,0.00,meteohub,2013-02-25 17:32:00,
2013-02-25 11:02:00,30.6,5.5,30.10,NW,313,2.0,11.0,34,0.00,,,0.00,meteohub,2013-02-25 18:02:00,
2013-02-25 11:32:00,31.6,5.9,30.09,WSW,257,2.0,10.0,33,0.00,,,0.00,meteohub,2013-02-25 18:32:00,
2013-02-25 12:02:00,33.3,2.8,30.08,North,5,4.0,14.0,27,0.00,,,0.00,meteohub,2013-02-25 19:02:00,
2013-02-25 12:32:00,33.4,4.6,30.07,West,279,10.0,13.0,29,0.00,,,0.00,meteohub,2013-02-25 19:32:00,
2013-02-25 13:02:00,34.7,5.7,30.05,SW,236,2.0,12.0,29,0.00,,,0.00,meteohub,2013-02-25 20:02:00,
2013-02-25 13:32:00,35.4,5.5,30.04,WNW,298,8.0,12.0,28,0.00,,,0.00,meteohub,2013-02-25 20:32:00,
2013-02-25 14:02:00,36.7,4.1,30.03,NW,323,6.0,11.0,25,0.00,,,0.00,meteohub,2013-02-25 21:02:00,
2013-02-25 14:32:00,37.8,3.2,30.02,North,355,5.0,11.0,23,0.00,,,0.00,meteohub,2013-02-25 21:32:00,
2013-02-25 15:02:00,37.9,2.5,30.02,WNW,285,4.0,11.0,22,0.00,,,0.00,meteohub,2013-02-25 22:02:00,
2013-02-25 15:32:00,38.5,5.7,30.01,NW,306,7.0,9.0,25,0.00,,,0.00,meteohub,2013-02-25 22:32:00,
2013-02-25 16:02:00,37.4,8.8,30.00,WSW,239,8.0,11.0,30,0.00,,,0.00,meteohub,2013-02-25 23:02:00,
2013-02-25 16:32:00,36.0,8.2,29.99,SW,228,7.0,13.0,31,0.00,,,0.00,meteohub,2013-02-25 23:32:00,
2013-02-25 17:02:00,34.3,6.8,29.98,SW,236,6.0,12.0,31,0.00,,,0.00,meteohub,2013-02-26 00:02:00,
2013-02-25 17:32:00,32.5,5.2,29.98,SW,228,6.0,8.0,31,0.00,,,0.00,meteohub,2013-02-26 00:32:00,
2013-02-25 18:02:00,27.9,6.6,29.99,SW,232,5.0,6.0,40,0.00,,,0.00,meteohub,2013-02-26 01:02:00,
2013-02-25 18:32:00,24.4,8.4,29.99,SW,232,5.0,5.0,50,0.00,,,0.00,meteohub,2013-02-26 01:32:00,
2013-02-25 19:02:00,22.3,8.6,29.99,SW,232,1.0,3.0,55,0.00,,,0.00,meteohub,2013-02-26 02:02:00,
2013-02-25 19:32:00,23.2,8.2,30.00,SW,232,3.0,4.0,52,0.00,,,0.00,meteohub,2013-02-26 02:32:00,
2013-02-25 20:02:00,20.1,7.0,30.00,SW,232,0.0,3.0,56,0.00,,,0.00,meteohub,2013-02-26 03:02:00,
2013-02-25 20:32:00,16.7,5.9,30.01,ESE,119,5.0,8.0,62,0.00,,,0.00,meteohub,2013-02-26 03:32:00,
2013-02-25 21:02:00,15.8,6.4,30.02,ESE,119,0.0,4.0,66,0.00,,,0.00,meteohub,2013-02-26 04:02:00,
2013-02-25 21:32:00,15.3,5.9,30.02,ESE,119,5.0,7.0,66,0.00,,,0.00,meteohub,2013-02-26 04:32:00,
2013-02-25 22:02:00,14.7,6.1,30.02,ENE,78,4.0,7.0,68,0.00,,,0.00,meteohub,2013-02-26 05:02:00,
2013-02-25 22:32:00,17.4,5.9,30.01,ENE,78,0.0,2.0,60,0.00,,,0.00,meteohub,2013-02-26 05:32:00,
2013-02-25 23:02:00,13.3,4.6,30.01,ENE,78,4.0,5.0,68,0.00,,,0.00,meteohub,2013-02-26 06:02:00,
2013-02-25 23:32:00,13.5,5.2,30.01,SSW,198,2.0,6.0,69,0.00,,,0.00,meteohub,2013-02-26 06:32:00,